Regional Weather Roundup
Issued by NWS

Home | Current Version | Previous Version | Text Only | Print | Product List | Glossary Off
Versions: 1 2 3 4 5 6 7 8 9 10 11 12 13 14 15 16 17 18 19 20 21 22 23 24 25 26 27 28 29 30 31 32 33 34 35 36 37 38 39 40 41 42 43 44 45 46 47 48 49 50

000
ASUS43 KMKX 192221
RWRWI

WISCONSIN REGIONAL WEATHER ROUNDUP
NATIONAL WEATHER SERVICE MILWAUKEE/SULLIVAN WI
400 PM CST FRI DEC 19 2014

NOTE: "FAIR" INDICATES FEW OR NO CLOUDS BELOW 12,000 FEET WITH NO
SIGNIFICANT WEATHER AND/OR OBSTRUCTIONS TO VISIBILITY.

WIZ001-002-006>008-014>016-023>028-192300-
NORTHWEST WISCONSIN

CITY           SKY/WX    TMP DP  RH WIND       PRES   REMARKS
SUPERIOR ARPT  CLOUDY    27  23  82 S3        30.21S
ASHLAND        CLOUDY    25  21  85 CALM      30.23S
HAYWARD        CLOUDY    25  20  81 S8        30.20S HAZE    WCI  16
SIREN          CLOUDY    27  21  77 S5        30.20R WCI  22
CUMBERLAND     CLOUDY    27  21  80 SE7       30.20S WCI  19
RICE LAKE      CLOUDY    27  21  78 SE8       30.22S WCI  18
CHETEK         CLOUDY    26  21  82 SE7       30.22S WCI  18
LADYSMITH      CLOUDY    25  22  87 SE7       30.23S WCI  18
EAU CLAIRE     CLOUDY    27  19  72 SE7       30.23S WCI  19
MENOMONIE      CLOUDY    28  20  72 SE7       30.23S WCI  21
NEW RICHMOND   CLOUDY    27  24  89 SE7       30.20S WCI  19
OSCEOLA        CLOUDY    28  24  85 SE10      30.22S WCI  18
$$

WIZ003>005-009-010-017-018-192300-
NORTH CENTRAL WISCONSIN

CITY           SKY/WX    TMP DP  RH WIND       PRES   REMARKS
MANITOWISH WTR CLOUDY    22  18  83 S6        30.20R WCI  15
ARBOR VITAE    CLOUDY    23  18  81 CALM      30.20S
WOODRUFF       CLOUDY    23  18  81 CALM      30.20S
RHINELANDER    MOCLDY    22  16  78 W6        30.20S WCI  14
EAGLE RIVER    CLEAR     21  16  80 CALM      30.20R
LAND O LAKES   CLOUDY    24  20  85 CALM      30.20S
PHILLIPS       CLOUDY    22  20  91 S5        30.21R WCI  16
TOMAHAWK       MOCLDY    22  17  79 CALM      30.21F
MEDFORD        CLOUDY    22  20  94 S5        30.21S WCI  15
MERRILL        MOCLDY    24  18  77 W5        30.22F WCI  19
$$

WIZ029-030-035-036-043>047-192300-
CENTRAL WISCONSIN

CITY           SKY/WX    TMP DP  RH WIND       PRES   REMARKS
WAUSAU         MOCLDY    25  17  72 SW6       30.22S WCI  18
MOSINEE        MOCLDY    25  19  80 SW6       30.24S WCI  18
MARSHFIELD     CLOUDY    24  20  84 S6        30.24R WCI  17
STEVENS POINT  CLOUDY    24  17  74 CALM      30.25S
WAUPACA          N/A     30  19  65 CALM      30.26S
WAUTOMA        CLOUDY    27  18  69 CALM      30.28R
WISC RAPIDS    CLOUDY    24  19  81 SW7       30.27S WCI  16
CAMP DOUGLAS   CLOUDY    26  25  94 E5        30.27R WCI  21
$$

WIZ011>013-019>022-031-037>040-048>050-192300-
NORTHEAST WISCONSIN

CITY           SKY/WX    TMP DP  RH WIND       PRES   REMARKS
ANTIGO         CLEAR     24  17  74 S5        30.21S WCI  18
SHAWANO        CLEAR     30  19  64 SW3       30.27R
OCONTO         CLEAR     26  22  84 SE3       30.28R
STURGEON BAY   PTCLDY    27  19  74 CALM      30.29S
GREEN BAY      PTCLDY    30  21  69 S5        30.27S WCI  25
MANITOWOC      CLOUDY    30  23  75 CALM      30.27S
APPLETON       PTCLDY    28  19  69 VRB5      30.26S WCI  23
CLINTONVILLE   PTCLDY    28  19  69 CALM      30.26S
OSHKOSH        CLOUDY    28  18  66 CALM      30.26S
$$

WIZ032>034-041-042-053>061-192300-
SOUTHWEST WISCONSIN

CITY           SKY/WX    TMP DP  RH WIND       PRES   REMARKS
LA CROSSE      CLOUDY    31  20  63 S6        30.27R WCI  25
SPARTA         CLOUDY    29  20  67 S3        30.27R
VIROQUA        CLOUDY    28  21  76 S5        30.24R WCI  23
BOSCOBEL       CLOUDY    31  20  63 S3        30.29R
PRAIRIE DU CHI CLOUDY    29  20  68 CALM      30.29R
PLATTEVILLE    CLOUDY    29  22  75 CALM      30.29R
$$

WIZ056-057-062-063-064-067-068-192300-
SOUTH CENTRAL WISCONSIN

CITY           SKY/WX    TMP DP  RH WIND       PRES   REMARKS
REEDSBURG      CLOUDY    25  21  83 CALM      30.28R
BARABOO/DELLS  CLOUDY    24  20  84 CALM      30.27R
LONE ROCK      CLOUDY    32  19  58 E3        30.29R
MINERAL POINT  CLOUDY    30  21  69 S3        30.27R
MADISON        CLOUDY    26  20  77 CALM      30.28R
MIDDLETON      CLOUDY    28  21  77 SW3       30.29R
WATERTOWN      CLOUDY    28  19  71 CALM      30.28R
MONROE         CLOUDY    28  23  80 CALM      30.28R
JANESVILLE     CLOUDY    28  21  74 CALM      30.29R
$$

WIZ051-052-058>065-066-070>072-192300-
SOUTHEAST WISCONSIN

CITY           SKY/WX    TMP DP  RH WIND       PRES   REMARKS
MILWAUKEE      MOCLDY    31  18  58 SW5       30.28R WCI  26
WAUKESHA       CLOUDY    28  18  64 MISG      30.27R
MILWAUKEE/TIMM CLOUDY    30  18  59 CALM      30.27R
RACINE         CLOUDY    30  19  63 W5        30.30R WCI  25
BURLINGTON     CLOUDY    27  19  71 SW6       30.30R WCI  20
KENOSHA        CLOUDY    29  21  72 SW6       30.29R WCI  23
FOND DU LAC    CLOUDY    29  18  63 W3        30.26S
SHEBOYGAN      CLOUDY    30  21  69 NW6       30.26S WCI  24
WEST BEND      CLOUDY    30  21  69 CALM      30.26R
JUNEAU         CLOUDY    27  18  69 CALM      30.28R
$$

LSZ147-162-192300-
LAKE SUPERIOR

STATION/POSITION TIME  TEMP    WIND        PRES    WAVE
                       AIR SEA DIR/SP/G            HT/PER
                 (UTC) (F)     (DEG/KT/KT) (MB)    (FT/S)
DEVILS ISLAND    2200   25     200/  5/  7 1025.1S
PORT WING        2140   27     170/  4/  5 1023.7S
SAXON HARBOR     2100   26      CALM  /  6 1023.7S
$$

LMZ867-665-643>646-192300-
LAKE MICHIGAN

STATION/POSITION TIME  TEMP    WIND        PRES    WAVE
                       AIR SEA DIR/SP/G            HT/PER
                 (UTC) (F)     (DEG/KT/KT) (MB)    (FT/S)
CHAMBERS ISLAND  2100   32     300/  4/  6 1025.4S
NORTHPORT PIER   2122   28     300/  4/  6 1025.1S
ALGOMA LAKESHORE 2114          250/  7/  8   N/A
KEWAUNEE LAKESHO 2200   29     310/  2/  5 1024.3R
SHEBOYGAN LAKESH 2200   31 33  330/  5/  5 1026.1R
PORT WASHINGTON  2140   31     360/  2/  5 1025.7R
MILWAUKEE LAKESH 2200   32     250/  2/  2   N/A
KENOSHA   LAKESH 2200   30     230/  4/  7 1025.7R
$$

TC  - TEMPERATURE IN CELSIUS
VSB - VISIBILITY IN STATUTE MILES
WCI - WIND CHILL INDEX
HX  - HEAT INDEX




USA.gov is the U.S. government's official web portal to all federal, state and local government web resources and services.